Starlink 11533

operational
NORAD ID: 62836 Int'l Des: 2025-019 Owner: SPXS Country: US Constellation: starlink
LEOCIRCULAR

About Starlink 11533

Description loading...

Live Position

Loading 3D Globe...

Upcoming Passes

Altitude History

Altitude vs Time

uPlot chart will show altitude changes over time

Two-Line Element Set

1 62836U 25019H 25303.24131772 .00236527 00000-0 17879-2 0 9991
2 62836 42.9990 12.3675 0001547 301.0610 59.0106 15.70932527 43360
Epoch: Oct 30, 2025 • Age: 16 hours

Current Status

Altitude 357.5 km
Velocity 7.70 km/s
Sub-Earth Point 33.38°N, 140.53°E
Launch Date Jan 27, 2025
Age 0.7 years
Type internet

Technical Details

Classification Payload
Mass 960.00 kg
Dry Mass 910.00 kg
Total Mass 960.00 kg
Length 0.30 m
Diameter 4.10 m
Span 29.00 m
Shape Box + pan
Manufacturer SPXS
Bus Type Starlink V2MD
Phase Status In Orbit
Owner/State SPXS/US

Large Constellations

Loading constellations...